Regional Weather Roundup
Issued by NWS

Home | Current Version | Previous Version | Graphics & Text | Print | Product List | Glossary On
Versions: 1 2 3 4 5 6 7 8 9 10 11 12 13 14 15 16 17 18 19 20 21 22 23 24 25 26 27 28 29 30 31 32 33 34 35 36 37 38 39 40 41 42 43 44 45 46 47 48 49 50
000
ASUS43 KDTX 220110
RWRMI
MICHIGAN HOURLY REGIONAL WEATHER ROUNDUP
NATIONAL WEATHER SERVICE DETROIT/PONTIAC MI
800 PM EST FRI NOV 21 2014

NOTE: "FAIR" INDICATES FEW OR NO CLOUDS BELOW 12,000 FEET WITH NO
SIGNIFICANT WEATHER AND/OR OBSTRUCTION TO VISIBILITY.

MIZ047>049-052>055-059>063-066>070-074>076-081>083-220200-
SOUTHEAST LOWER MICHIGAN

CITY           SKY/WX    TMP DP  RH WIND       PRES   REMARKS
ADRIAN         PTCLDY    19  11  70 S6        30.40F
ALMA           PTCLDY    23  14  69 S8        30.33F
ANN ARBOR      PTCLDY    19  10  68 S6        30.39F
BAD AXE        PTCLDY    22  12  67 S9        30.35S
DETROIT CITY   CLEAR     25  14  63 SW8       30.42F
DETROIT        PTCLDY    20  12  71 S7        30.42F
FLINT          PTCLDY    25  13  60 S10       30.36F
GROSSE ILE     CLEAR     25  16  68 S9        30.41F
HILLSDALE      PTCLDY    20  12  68 S6        30.35F
HOWELL         PTCLDY    21  12  69 S9        30.36F

CITY           SKY/WX    TMP DP  RH WIND       PRES   REMARKS
JACKSON        PTCLDY    21  11  65 S9        30.36F
LAMBERTVILLE   PTCLDY    23  14  68 CALM      30.43S
LANSING        PTCLDY    23  11  60 S8        30.35F
LAPEER         NOT AVBL
MASON          PTCLDY    20  12  71 S5        30.35F
MONROE         PTCLDY    19  12  73 CALM      30.41F
MT. CLEMENS    CLEAR     19  13  74 S7        30.39F
PONTIAC        CLEAR     21  12  68 S9        30.36F
PORT HOPE        N/A     22  10  60 SW7       30.33F
PORT HURON     PTCLDY    16  10  79 SW6       30.39F
TRI CITIES     PTCLDY    25  13  60 S10       30.34F
YPSILANTI      PTCLDY    22  12  65 S8        30.41F
$$
MIZ043>046-050>051-056>058-064>065-071>073-077>080-220200-
SOUTHWEST LOWER MICHIGAN

CITY           SKY/WX    TMP DP  RH WIND       PRES   REMARKS
BATTLE CREEK   PTCLDY    23  11  60 S10       30.33F
BENTON HARBOR  CLEAR     25  11  55 S8        30.33F
BIG RAPIDS     MOCLDY    26  16  65 S7        30.26F
COLDWATER      PTCLDY    23  14  69 S7        30.35F
HOLLAND        CLEAR     25  13  60 S8        30.32F
GRAND RAPIDS   PTCLDY    21  12  68 S12       30.32F
KALAMAZOO      PTCLDY    24  11  57 S8        30.34F
MARSHALL       PTCLDY    20  11  68 S6        30.34F
MUSKEGON       PTCLDY    27  12  53 SE13      30.30F
$$
MIZ016>042-220200-
NORTHERN LOWER MICHIGAN

CITY           SKY/WX    TMP DP  RH WIND       PRES   REMARKS
ALPENA         PTCLDY    24  13  62 SW12      30.24F
BEAVER ISLAND  MOCLDY    33  26  74 S15G25    30.12F
BELLAIRE       MOCLDY    27  18  69 S10G17    30.22F
CADILLAC       PTCLDY    23  17  77 S12       30.20F
CHARLEVOIX     MOCLDY    27  18  69 S10G20    30.20F
FRANKFORT      PTCLDY    30  22  74 S10G16    30.19F
GAYLORD        PTCLDY    22  14  71 S17G25    30.17F
GRAYLING       PTCLDY    23  14  68 S8G16     30.22F
HARBOR SPRINGS MOCLDY    26  17  67 SW10G20   30.18F
HOUGHTON LAKE  PTCLDY    23  14  68 S12       30.24F
MANISTEE       MOCLDY    30  19  64 S7        30.22F
OSCODA         PTCLDY    24  15  69 SW17      30.28F
PELLSTON       MOCLDY    26  15  63 S13G21    30.17F
TRAVERSE CITY  PTCLDY    27  17  66 S7        30.20F
$$
MIZ007>008-015-220200-
EASTERN UPPER MICHIGAN

CITY           SKY/WX    TMP DP  RH WIND       PRES   REMARKS
KINROSS        CLOUDY    27  21  80 S13       30.12F
MACKINAC ISLAN MOCLDY    27  17  65 S13G24    30.14F
NEWBERRY       MOCLDY    29  23  77 S22G28    30.06F
S. S. MARIE    CLOUDY    26  18  71 S6        30.09F
$$
MIZ004>006-011>014-085-220200-
CENTRAL UPPER MICHIGAN

CITY           SKY/WX    TMP DP  RH WIND       PRES   REMARKS
MANISTIQUE     CLOUDY    31  21  67 SW9       30.09S
ESCANABA       CLOUDY    27  10  50 SW18G26   30.07F
MENOMINEE      MOCLDY    28  10  47 SW17G25   30.11F
SAWYER-GWINN   PTCLDY    19   9  63 S22       29.99F
$$
MIZ001>003-009>011-084-220200-
WESTERN UPPER MICHIGAN

CITY           SKY/WX    TMP DP  RH WIND       PRES   REMARKS
IRON MOUNTAIN  CLOUDY    21   7  54 S12       30.02F
HOUGHTON       PTCLDY    25  10  53 SW15G24   29.85F
COPPER HARBOR    N/A     29  12  49 W12G30    29.84F
IRONWOOD       CLOUDY    27  12  54 SW18G29   29.84F
$$

ABBREVIATIONS USED IN REMARKS
   TC - TEMPERATURE IN CELSIUS
  WCI - WIND CHILL INDEX
   HX - HEAT INDEX
  VSB - VISIBILITY



USA.gov is the U.S. government's official web portal to all federal, state and local government web resources and services.